Terminal Aerodrome Forecast
Issued by NWS

Home | Current Version | Previous Version | Text Only | Print | Product List | Glossary Off
Versions: 1 2 3 4 5 6 7 8 9 10 11 12 13 14 15 16 17 18 19 20

802
FTUS43 KABR 251720
TAFPIR
TAF
KPIR 251720Z 2518/2618 07015G20KT P6SM SCT200
     FM252200 05010G21KT P6SM VCTS BKN200CB
     FM260000 05011KT P6SM -SHRA BKN090
      TEMPO 2600/2601 4SM TS OVC040CB
     FM260100 06008KT P6SM OVC090
     FM261700 05009KT P6SM SCT140=

USA.gov is the U.S. government's official web portal to all federal, state and local government web resources and services.